Time,TemperatureF,DewpointF,PressureIn,WindDirection,WindDirectionDegrees,WindSpeedMPH,WindSpeedGustMPH,Humidity,HourlyPrecipIn,Conditions,Clouds,dailyrainin,SoftwareType,DateUTC
2013-02-27 00:00:00,34.7,34.5,30.10,WSW,248,0.0,1.1,99,0.00,,,0.00,WUHU216HW,2013-02-27 05:00:00,
2013-02-27 00:05:00,34.7,34.5,30.10,West,270,0.0,0.4,99,0.00,,,0.00,WUHU216HW,2013-02-27 05:05:00,
2013-02-27 00:10:00,37.1,36.8,30.09,NNW,338,0.0,0.4,99,0.00,,,0.00,WUHU216HW,2013-02-27 05:10:00,
2013-02-27 00:15:00,37.2,37.0,30.09,North,0,0.0,0.9,99,0.00,,,0.00,WUHU216HW,2013-02-27 05:15:00,
2013-02-27 00:20:00,46.1,45.8,30.09,SE,135,0.4,0.9,99,0.00,,,0.00,WUHU216HW,2013-02-27 05:20:00,
2013-02-27 00:25:00,36.2,35.9,30.09,East,90,1.1,1.1,99,0.00,,,0.00,WUHU216HW,2013-02-27 05:25:00,
2013-02-27 00:30:00,34.9,34.7,30.08,East,90,0.4,1.1,99,0.00,,,0.00,WUHU216HW,2013-02-27 05:30:00,
2013-02-27 00:35:00,34.7,34.5,30.09,SE,135,0.4,1.1,99,0.00,,,0.00,WUHU216HW,2013-02-27 05:35:00,
2013-02-27 00:40:00,34.7,34.5,30.09,ESE,113,0.0,0.7,99,0.00,,,0.00,WUHU216HW,2013-02-27 05:40:00,
2013-02-27 00:45:00,34.6,34.3,30.08,ESE,113,0.0,0.0,99,0.00,,,0.00,WUHU216HW,2013-02-27 05:45:00,
2013-02-27 00:50:00,34.7,34.5,30.08,ESE,113,0.0,0.0,99,0.00,,,0.00,WUHU216HW,2013-02-27 05:50:00,
2013-02-27 00:55:00,34.7,34.5,30.08,ENE,68,1.6,1.6,99,0.00,,,0.00,WUHU216HW,2013-02-27 05:55:00,
2013-02-27 01:00:00,34.7,34.5,30.08,ENE,68,0.0,1.8,99,0.00,,,0.00,WUHU216HW,2013-02-27 06:00:00,
2013-02-27 01:05:00,34.7,34.5,30.08,ESE,113,0.0,1.8,99,0.00,,,0.00,WUHU216HW,2013-02-27 06:05:00,
2013-02-27 01:10:00,34.7,34.5,30.08,ESE,113,1.3,1.3,99,0.00,,,0.00,WUHU216HW,2013-02-27 06:10:00,
2013-02-27 01:15:00,34.7,34.5,30.08,SE,135,0.4,1.3,99,0.00,,,0.00,WUHU216HW,2013-02-27 06:15:00,
2013-02-27 01:20:00,34.7,34.5,30.08,SE,135,0.9,1.1,99,0.00,,,0.00,WUHU216HW,2013-02-27 06:20:00,
2013-02-27 01:25:00,38.7,38.4,30.08,SE,135,0.7,1.1,99,0.00,,,0.00,WUHU216HW,2013-02-27 06:25:00,
2013-02-27 01:30:00,45.0,44.7,30.07,ESE,113,0.0,0.9,99,0.00,,,0.00,WUHU216HW,2013-02-27 06:30:00,
2013-02-27 01:35:00,42.9,42.6,30.08,East,90,1.1,1.1,99,0.00,,,0.00,WUHU216HW,2013-02-27 06:35:00,
2013-02-27 01:40:00,39.2,39.0,30.07,ESE,113,1.1,1.1,99,0.00,,,0.00,WUHU216HW,2013-02-27 06:40:00,
2013-02-27 01:45:00,35.5,35.2,30.08,ESE,113,0.0,1.1,99,0.00,,,0.00,WUHU216HW,2013-02-27 06:45:00,
2013-02-27 01:50:00,34.9,34.7,30.08,ESE,113,0.0,0.7,99,0.00,,,0.00,WUHU216HW,2013-02-27 06:50:00,
2013-02-27 01:55:00,34.7,34.5,30.08,SW,225,0.0,0.0,99,0.00,,,0.00,WUHU216HW,2013-02-27 06:55:00,
2013-02-27 02:00:00,34.7,34.5,30.07,SW,225,0.0,0.0,99,0.00,,,0.00,WUHU216HW,2013-02-27 07:00:00,
2013-02-27 02:05:00,34.9,34.7,30.07,SW,225,0.0,0.0,99,0.00,,,0.00,WUHU216HW,2013-02-27 07:05:00,
2013-02-27 02:10:00,34.9,34.7,30.07,SW,225,0.0,0.0,99,0.00,,,0.00,WUHU216HW,2013-02-27 07:10:00,
2013-02-27 02:15:00,34.9,34.7,30.07,SW,225,0.0,0.0,99,0.00,,,0.00,WUHU216HW,2013-02-27 07:15:00,
2013-02-27 02:20:00,34.9,34.7,30.07,SSE,158,0.0,0.0,99,0.00,,,0.00,WUHU216HW,2013-02-27 07:20:00,
2013-02-27 02:25:00,34.9,34.7,30.07,SSE,158,0.0,0.0,99,0.00,,,0.00,WUHU216HW,2013-02-27 07:25:00,
2013-02-27 02:30:00,34.9,34.7,30.07,SW,225,0.0,0.9,99,0.00,,,0.00,WUHU216HW,2013-02-27 07:30:00,
2013-02-27 02:35:00,35.1,34.8,30.07,SW,225,0.0,0.9,99,0.00,,,0.00,WUHU216HW,2013-02-27 07:35:00,
2013-02-27 02:40:00,35.8,35.6,30.07,SSE,158,0.4,0.7,99,0.00,,,0.00,WUHU216HW,2013-02-27 07:40:00,
2013-02-27 02:45:00,45.7,45.5,30.07,SE,135,1.1,1.1,99,0.00,,,0.00,WUHU216HW,2013-02-27 07:45:00,
2013-02-27 02:50:00,41.8,41.5,30.06,SE,135,0.0,1.1,99,0.00,,,0.00,WUHU216HW,2013-02-27 07:50:00,
2013-02-27 02:55:00,40.7,40.4,30.06,ESE,113,0.7,0.7,99,0.00,,,0.00,WUHU216HW,2013-02-27 07:55:00,
2013-02-27 03:00:00,36.4,36.1,30.06,ESE,113,1.1,1.1,99,0.00,,,0.00,WUHU216HW,2013-02-27 08:00:00,
2013-02-27 03:05:00,35.6,35.4,30.06,SE,135,1.8,1.8,99,0.00,,,0.00,WUHU216HW,2013-02-27 08:05:00,
2013-02-27 03:10:00,35.5,35.2,30.06,ESE,113,1.8,2.5,99,0.00,,,0.00,WUHU216HW,2013-02-27 08:10:00,
2013-02-27 03:15:00,35.1,34.8,30.06,SE,135,1.8,2.7,99,0.00,,,0.00,WUHU216HW,2013-02-27 08:15:00,
2013-02-27 03:20:00,35.1,34.8,30.06,ESE,113,3.4,3.4,99,0.00,,,0.00,WUHU216HW,2013-02-27 08:20:00,
2013-02-27 03:25:00,35.1,34.8,30.06,SE,135,3.4,3.6,99,0.00,,,0.00,WUHU216HW,2013-02-27 08:25:00,
2013-02-27 03:30:00,35.1,34.8,30.06,ESE,113,4.3,5.4,99,0.00,,,0.00,WUHU216HW,2013-02-27 08:30:00,
2013-02-27 03:35:00,35.1,34.8,30.06,ESE,113,4.3,5.4,99,0.00,,,0.00,WUHU216HW,2013-02-27 08:35:00,
2013-02-27 03:40:00,35.1,34.8,30.06,SE,135,5.8,5.8,99,0.00,,,0.00,WUHU216HW,2013-02-27 08:40:00,
2013-02-27 03:45:00,35.1,34.8,30.06,SE,135,5.1,5.8,99,0.00,,,0.00,WUHU216HW,2013-02-27 08:45:00,
2013-02-27 03:50:00,34.9,34.7,30.05,SSE,158,5.1,5.8,99,0.00,,,0.00,WUHU216HW,2013-02-27 08:50:00,
2013-02-27 03:55:00,37.8,37.5,30.05,SSE,158,6.7,6.7,99,0.00,,,0.00,WUHU216HW,2013-02-27 08:55:00,
2013-02-27 04:00:00,37.1,36.8,30.05,SSE,158,2.7,6.9,99,0.00,,,0.00,WUHU216HW,2013-02-27 09:00:00,
2013-02-27 04:01:00,37.3,37.0,30.04,SE,135,2.7,2.7,99,0.00,,,0.00,WUHU216HW,2013-02-27 09:01:00,
2013-02-27 04:05:00,37.3,37.0,30.04,SE,135,2.7,6.9,99,0.00,,,0.00,WUHU216HW,2013-02-27 09:05:00,
2013-02-27 04:10:00,37.3,37.0,30.04,SE,135,2.7,2.7,99,0.00,,,0.00,WUHU216HW,2013-02-27 09:10:00,
2013-02-27 04:31:00,34.7,34.5,30.03,SE,135,0.0,0.0,99,0.00,,,0.00,WUHU216HW,2013-02-27 09:31:00,
2013-02-27 04:36:00,34.7,34.5,30.02,SE,135,0.0,0.0,99,0.00,,,0.00,WUHU216HW,2013-02-27 09:36:00,
2013-02-27 04:41:00,34.6,34.3,30.01,WSW,248,0.4,0.4,99,0.00,,,0.00,WUHU216HW,2013-02-27 09:41:00,
2013-02-27 04:46:00,34.6,34.3,30.00,WNW,293,0.7,0.9,99,0.00,,,0.00,WUHU216HW,2013-02-27 09:46:00,
2013-02-27 04:51:00,34.4,34.1,30.00,NNW,338,1.1,1.6,99,0.00,,,0.00,WUHU216HW,2013-02-27 09:51:00,
2013-02-27 04:56:00,34.2,33.9,30.00,WNW,293,2.7,2.7,99,0.00,,,0.00,WUHU216HW,2013-02-27 09:56:00,
2013-02-27 05:01:00,34.2,33.9,30.00,WSW,248,0.4,2.7,99,0.00,,,0.00,WUHU216HW,2013-02-27 10:01:00,
2013-02-27 05:06:00,34.0,33.8,30.00,WSW,248,0.7,1.8,99,0.00,,,0.00,WUHU216HW,2013-02-27 10:06:00,
2013-02-27 05:11:00,34.0,33.8,30.00,WSW,248,0.7,0.7,99,0.00,,,0.00,WUHU216HW,2013-02-27 10:11:00,
2013-02-27 16:43:00,-32.9,-34.3,29.70,NNE,23,0.4,0.4,93,0.00,,,0.00,WUHU216HW,2013-02-27 21:43:00,
2013-02-27 16:48:00,-32.9,-34.3,29.70,NNE,23,0.4,0.4,93,0.00,,,0.00,WUHU216HW,2013-02-27 21:48:00,
2013-02-27 18:00:00,-39.2,-40.7,29.69,WNW,293,2.5,2.5,92,0.00,,,0.00,WUHU216HW,2013-02-27 23:00:00,
2013-02-27 18:05:00,-39.2,-40.7,29.69,WNW,293,2.5,2.5,92,0.00,,,0.00,WUHU216HW,2013-02-27 23:05:00,
2013-02-27 18:59:00,44.1,43.8,29.68,East,90,7.8,7.8,99,0.00,,,0.00,WUHU216HW,2013-02-27 23:59:00,
2013-02-27 19:04:00,43.9,43.7,29.68,East,90,8.7,8.7,99,0.00,,,0.00,WUHU216HW,2013-02-28 00:04:00,
2013-02-27 19:09:00,43.9,43.7,29.68,East,90,8.7,8.7,99,0.00,,,0.00,WUHU216HW,2013-02-28 00:09:00,
2013-02-27 19:21:00,86.8,86.4,29.67,ESE,113,9.8,9.8,99,0.00,,,0.00,WUHU216HW,2013-02-28 00:21:00,
2013-02-27 19:25:00,86.8,86.5,29.67,ESE,113,12.8,15.0,99,0.00,,,0.00,WUHU216HW,2013-02-28 00:25:00,
2013-02-27 19:31:00,86.8,86.5,29.67,ESE,113,7.2,15.0,99,0.00,,,0.00,WUHU216HW,2013-02-28 00:31:00,
2013-02-27 19:36:00,46.3,46.0,29.67,ESE,113,6.3,12.3,99,0.00,,,0.00,WUHU216HW,2013-02-28 00:36:00,
2013-02-27 19:41:00,45.0,44.7,29.67,NE,45,3.1,8.5,99,0.00,,,0.00,WUHU216HW,2013-02-28 00:41:00,
2013-02-27 19:46:00,44.3,44.0,29.67,SW,225,1.1,5.8,99,0.00,,,0.00,WUHU216HW,2013-02-28 00:46:00,
2013-02-27 19:51:00,43.7,43.5,29.67,NW,315,0.0,3.4,99,0.00,,,0.00,WUHU216HW,2013-02-28 00:51:00,
2013-02-27 19:55:00,43.6,43.3,29.67,WNW,293,1.6,2.0,99,0.00,,,0.00,WUHU216HW,2013-02-28 00:55:00,
2013-02-27 20:00:00,43.2,42.9,29.67,West,270,3.6,3.8,99,0.00,,,0.00,WUHU216HW,2013-02-28 01:00:00,
2013-02-27 20:06:00,43.0,42.8,29.67,WNW,293,1.8,3.8,99,0.00,,,0.00,WUHU216HW,2013-02-28 01:06:00,
2013-02-27 20:10:00,43.0,42.8,29.67,WNW,293,1.8,1.8,99,0.00,,,0.00,WUHU216HW,2013-02-28 01:10:00,
2013-02-27 20:19:00,13.9,13.6,29.67,ENE,68,3.6,3.6,99,0.00,,,0.00,WUHU216HW,2013-02-28 01:19:00,
2013-02-27 20:24:00,13.9,12.0,29.67,East,90,7.6,7.6,92,0.00,,,0.00,WUHU216HW,2013-02-28 01:24:00,
2013-02-27 20:29:00,13.9,12.0,29.67,ENE,68,5.4,7.6,92,0.00,,,0.00,WUHU216HW,2013-02-28 01:29:00,
2013-02-27 20:34:00,13.9,12.0,29.67,ENE,68,5.4,5.4,92,0.00,,,0.00,WUHU216HW,2013-02-28 01:34:00,
2013-02-27 20:39:00,13.9,13.7,29.67,ENE,68,5.6,7.4,99,0.00,,,0.00,WUHU216HW,2013-02-28 01:39:00,
2013-02-27 20:44:00,55.6,55.4,29.67,East,90,4.7,7.4,99,0.00,,,0.00,WUHU216HW,2013-02-28 01:44:00,
2013-02-27 20:49:00,51.5,51.2,29.67,East,90,4.3,6.3,99,0.00,,,0.00,WUHU216HW,2013-02-28 01:49:00,
2013-02-27 20:54:00,49.1,48.9,29.67,East,90,4.0,4.9,99,0.00,,,0.00,WUHU216HW,2013-02-28 01:54:00,
2013-02-27 20:59:00,47.9,47.6,29.67,East,90,3.1,4.9,99,0.00,,,0.00,WUHU216HW,2013-02-28 01:59:00,
2013-02-27 21:04:00,47.2,46.9,29.66,East,90,1.1,3.4,99,0.00,,,0.00,WUHU216HW,2013-02-28 02:04:00,
2013-02-27 21:09:00,46.8,46.5,29.66,East,90,1.1,3.1,99,0.00,,,0.00,WUHU216HW,2013-02-28 02:09:00,
2013-02-27 21:14:00,46.6,46.4,29.66,ENE,68,2.0,2.0,99,0.00,,,0.00,WUHU216HW,2013-02-28 02:14:00,
2013-02-27 21:19:00,46.6,46.4,29.66,East,90,1.1,2.0,99,0.00,,,0.00,WUHU216HW,2013-02-28 02:19:00,
2013-02-27 21:24:00,46.4,46.2,29.66,ENE,68,0.0,2.0,99,0.00,,,0.00,WUHU216HW,2013-02-28 02:24:00,
2013-02-27 21:29:00,46.6,46.4,29.66,WSW,248,0.4,1.8,99,0.00,,,0.00,WUHU216HW,2013-02-28 02:29:00,
2013-02-27 21:34:00,46.8,46.5,29.66,WSW,248,1.1,1.8,99,0.00,,,0.00,WUHU216HW,2013-02-28 02:34:00,
2013-02-27 21:39:00,46.8,46.5,29.66,WSW,248,1.1,1.1,99,0.00,,,0.00,WUHU216HW,2013-02-28 02:39:00,
2013-02-27 21:44:00,-16.2,-17.1,29.66,WSW,248,1.3,1.3,96,0.00,,,0.00,WUHU216HW,2013-02-28 02:44:00,
2013-02-27 21:49:00,-16.2,-17.9,29.66,WSW,248,2.5,2.5,92,0.00,,,0.00,WUHU216HW,2013-02-28 02:49:00,
2013-02-27 21:54:00,-16.2,-17.9,29.66,WSW,248,2.5,2.5,92,0.00,,,0.00,WUHU216HW,2013-02-28 02:54:00,
2013-02-27 22:51:00,-39.2,-40.7,29.65,NW,315,1.8,1.8,92,0.00,,,0.00,WUHU216HW,2013-02-28 03:51:00,
2013-02-27 22:56:00,-39.2,-40.7,29.65,NW,315,1.8,1.8,92,0.00,,,0.00,WUHU216HW,2013-02-28 03:56:00,
2013-02-27 23:01:00,-39.2,-39.6,29.65,NNW,338,0.0,0.0,98,0.00,,,0.00,WUHU216HW,2013-02-28 04:01:00,
2013-02-27 23:06:00,-32.9,-34.3,29.65,NW,315,1.1,1.1,93,0.00,,,0.00,WUHU216HW,2013-02-28 04:06:00,
2013-02-27 23:11:00,-32.9,-34.3,29.65,NW,315,1.1,1.1,93,0.00,,,0.00,WUHU216HW,2013-02-28 04:11:00,